Location: Beddau
(51.5575°N, 3.3561°W)
Time: 12:19:19
(UTC+00:00)

Cosmos 1602 - Pass Details

Date: 03 March 2021
Orbit: 512 x 534 km, 82.5° (Epoch: 17 April)

Event Time Altitude Azimuth Distance (km) Brightness Sun altitude
Rises 18:40:47 0° 178° (S) 2,653 7.3 -7.5°
Reaches altitude 10° 18:42:56 10° 175° (S) 1,772 6.4 -7.8°
Maximum altitude 18:46:45 58° 96° (E) 627 3.8 -8.4°
Drops below altitude 10° 18:50:38 10° 17° (NNE) 1,798 6.3 -9.0°
Sets 18:52:49 0° 14° (NNE) 2,696 7.2 -9.4°
